Year,Month,Day,Hour,Minute,Value (Times are PST for barometer in hPa)
2010,04,02,00,00,1002.88
2010,04,02,00,01,1002.81
2010,04,02,00,02,1002.88
2010,04,02,00,03,1002.74
2010,04,02,00,04,1002.74
2010,04,02,00,05,1002.71
2010,04,02,00,06,1002.61
2010,04,02,00,07,1002.61
2010,04,02,00,08,1002.57
2010,04,02,00,09,1002.57
2010,04,02,00,10,1002.47
2010,04,02,00,11,1002.63
2010,04,02,00,12,1002.57
2010,04,02,00,13,1002.54
2010,04,02,00,14,1002.64
2010,04,02,00,15,1002.51
2010,04,02,00,16,1002.54
2010,04,02,00,17,1002.51
2010,04,02,00,18,1002.44
2010,04,02,00,19,1002.30
2010,04,02,00,20,1002.47
2010,04,02,00,21,1002.30
2010,04,02,00,22,1002.37
2010,04,02,00,23,1002.41
2010,04,02,00,24,1002.21
2010,04,02,00,25,1002.17
2010,04,02,00,26,1002.10
2010,04,02,00,27,1002.10
2010,04,02,00,28,1002.17
2010,04,02,00,29,1002.10
2010,04,02,00,30,1002.13
2010,04,02,00,31,1002.07
2010,04,02,00,32,1002.07
2010,04,02,00,33,1002.10
2010,04,02,00,34,1002.03
2010,04,02,00,35,1001.97
2010,04,02,00,36,1002.03
2010,04,02,00,37,1002.00
2010,04,02,00,38,1002.00
2010,04,02,00,39,1001.97
2010,04,02,00,40,1001.80
2010,04,02,00,41,1001.86
2010,04,02,00,42,1002.00
2010,04,02,00,43,1001.97
2010,04,02,00,44,1001.83
2010,04,02,00,45,1001.93
2010,04,02,00,46,1001.90
2010,04,02,00,47,1001.83
2010,04,02,00,48,1001.76
2010,04,02,00,49,1001.69
2010,04,02,00,50,1001.76
2010,04,02,00,51,1001.73
2010,04,02,00,52,1001.46
2010,04,02,00,53,1001.56
2010,04,02,00,54,1001.49
2010,04,02,00,55,1001.52
2010,04,02,00,56,1001.29
2010,04,02,00,57,1001.49
2010,04,02,00,58,1001.39
2010,04,02,00,59,1001.39
2010,04,02,01,00,1001.39
2010,04,02,01,01,1001.46
2010,04,02,01,02,1001.29
2010,04,02,01,03,1001.25
2010,04,02,01,04,1001.29
2010,04,02,01,05,1001.19
2010,04,02,01,06,1001.25
2010,04,02,01,07,1001.22
2010,04,02,01,08,1001.12
2010,04,02,01,09,1001.22
2010,04,02,01,10,1001.19
2010,04,02,01,11,1001.12
2010,04,02,01,12,1001.05
2010,04,02,01,13,1001.15
2010,04,02,01,14,1001.12
2010,04,02,01,15,1001.12
2010,04,02,01,16,1001.05
2010,04,02,01,17,1000.98
2010,04,02,01,18,1001.19
2010,04,02,01,19,1001.12
2010,04,02,01,20,1001.05
2010,04,02,01,21,1001.29
2010,04,02,01,22,1001.25
2010,04,02,01,23,1001.25
2010,04,02,01,24,1001.25
2010,04,02,01,25,1001.25
2010,04,02,01,26,1001.22
2010,04,02,01,27,1001.29
2010,04,02,01,28,1001.29
2010,04,02,01,29,1001.22
2010,04,02,01,30,1001.12
2010,04,02,01,31,1001.25
2010,04,02,01,32,1001.25
2010,04,02,01,33,1001.25
2010,04,02,01,34,1001.22
2010,04,02,01,35,1001.05
2010,04,02,01,36,1001.12
2010,04,02,01,37,1001.08
2010,04,02,01,38,1001.08
2010,04,02,01,39,1001.12
2010,04,02,01,40,1001.12
2010,04,02,01,41,1001.02
2010,04,02,01,42,1000.95
2010,04,02,01,43,1000.88
2010,04,02,01,44,1000.85
2010,04,02,01,45,1000.85
2010,04,02,01,46,1000.81
2010,04,02,01,47,1000.88
2010,04,02,01,48,1000.78
2010,04,02,01,49,1000.81
2010,04,02,01,50,1000.78
2010,04,02,01,51,1000.81
2010,04,02,01,52,1000.71
2010,04,02,01,53,1000.68
2010,04,02,01,54,1000.68
2010,04,02,01,55,1000.68
2010,04,02,01,56,1000.54
2010,04,02,01,57,1000.51
2010,04,02,01,58,1000.48
2010,04,02,01,59,1000.54
2010,04,02,02,00,1000.58
2010,04,02,02,01,1000.58
2010,04,02,02,02,1000.48
2010,04,02,02,03,1000.48
2010,04,02,02,04,1000.51
2010,04,02,02,05,1000.37
2010,04,02,02,06,1000.37
2010,04,02,02,07,1000.34
2010,04,02,02,08,1000.34
2010,04,02,02,09,1000.27
2010,04,02,02,10,1000.10
2010,04,02,02,11,1000.10
2010,04,02,02,12,1000.10
2010,04,02,02,13,1000.14
2010,04,02,02,14,1000.03
2010,04,02,02,15,1000.07
2010,04,02,02,16,1000.03
2010,04,02,02,17,999.91
2010,04,02,02,18,999.76
2010,04,02,02,19,999.80
2010,04,02,02,20,999.73
2010,04,02,02,21,999.89
2010,04,02,02,22,999.63
2010,04,02,02,23,999.76
2010,04,02,02,24,999.66
2010,04,02,02,25,999.73
2010,04,02,02,26,999.63
2010,04,02,02,27,999.59
2010,04,02,02,28,999.72
2010,04,02,02,29,999.63
2010,04,02,02,30,999.53
2010,04,02,02,31,999.49
2010,04,02,02,32,999.49
2010,04,02,02,33,999.46
2010,04,02,02,34,999.43
2010,04,02,02,35,999.39
2010,04,02,02,36,999.36
2010,04,02,02,37,999.26
2010,04,02,02,38,999.26
2010,04,02,02,39,999.32
2010,04,02,02,40,999.42
2010,04,02,02,41,999.32
2010,04,02,02,42,999.49
2010,04,02,02,43,999.39
2010,04,02,02,44,999.29
2010,04,02,02,45,999.39
2010,04,02,02,46,999.26
2010,04,02,02,47,999.29
2010,04,02,02,48,999.22
2010,04,02,02,49,999.32
2010,04,02,02,50,999.16
2010,04,02,02,51,999.19
2010,04,02,02,52,999.26
2010,04,02,02,53,999.12
2010,04,02,02,54,999.19
2010,04,02,02,55,999.15
2010,04,02,02,56,999.19
2010,04,02,02,57,999.12
2010,04,02,02,58,999.12
2010,04,02,02,59,999.15
2010,04,02,03,00,999.09
2010,04,02,03,01,999.12
2010,04,02,03,02,999.09
2010,04,02,03,03,999.29
2010,04,02,03,04,999.05
2010,04,02,03,05,999.09
2010,04,02,03,06,999.09
2010,04,02,03,07,999.02
2010,04,02,03,08,998.99
2010,04,02,03,09,998.99
2010,04,02,03,10,998.88
2010,04,02,03,11,999.02
2010,04,02,03,12,998.88
2010,04,02,03,13,998.92
2010,04,02,03,14,998.68
2010,04,02,03,15,998.85
2010,04,02,03,16,998.88
2010,04,02,03,17,998.91
2010,04,02,03,18,998.82
2010,04,02,03,19,998.75
2010,04,02,03,20,998.75
2010,04,02,03,21,998.71
2010,04,02,03,22,998.71
2010,04,02,03,23,998.75
2010,04,02,03,24,998.65
2010,04,02,03,25,998.58
2010,04,02,03,26,998.75
2010,04,02,03,27,998.61
2010,04,02,03,28,998.54
2010,04,02,03,29,998.51
2010,04,02,03,30,998.54
2010,04,02,03,31,998.44
2010,04,02,03,32,998.41
2010,04,02,03,33,998.43
2010,04,02,03,34,998.34
2010,04,02,03,35,998.44
2010,04,02,03,36,998.28
2010,04,02,03,37,998.27
2010,04,02,03,38,998.34
2010,04,02,03,39,998.27
2010,04,02,03,42,998.21
2010,04,02,03,43,998.17
2010,04,02,03,44,998.21
2010,04,02,03,45,998.21
2010,04,02,03,46,998.21
2010,04,02,03,47,998.14
2010,04,02,03,48,998.14
2010,04,02,03,49,998.10
2010,04,02,03,50,998.04
2010,04,02,03,51,998.00
2010,04,02,03,52,998.00
2010,04,02,03,53,997.87
2010,04,02,03,54,997.94
2010,04,02,03,55,997.66
2010,04,02,03,56,997.66
2010,04,02,03,57,997.63
2010,04,02,03,58,997.50
2010,04,02,03,59,997.50
2010,04,02,04,00,997.46
2010,04,02,04,01,997.59
2010,04,02,04,02,997.39
2010,04,02,04,03,997.50
2010,04,02,04,04,997.39
2010,04,02,04,05,997.43
2010,04,02,04,06,997.39
2010,04,02,04,07,997.46
2010,04,02,04,08,997.43
2010,04,02,04,09,997.39
2010,04,02,04,10,997.33
2010,04,02,04,11,997.19
2010,04,02,04,12,997.19
2010,04,02,04,13,997.09
2010,04,02,04,14,997.02
2010,04,02,04,15,996.92
2010,04,02,04,16,996.95
2010,04,02,04,17,996.99
2010,04,02,04,18,996.92
2010,04,02,04,19,996.82
2010,04,02,04,20,996.82
2010,04,02,04,21,996.75
2010,04,02,04,22,996.51
2010,04,02,04,23,996.58
2010,04,02,04,24,996.55
2010,04,02,04,25,996.46
2010,04,02,04,26,996.45
2010,04,02,04,27,996.31
2010,04,02,04,28,996.23
2010,04,02,04,29,996.11
2010,04,02,04,30,996.14
2010,04,02,04,31,996.07
2010,04,02,04,32,996.07
2010,04,02,04,33,996.01
2010,04,02,04,34,996.01
2010,04,02,04,35,995.94
2010,04,02,04,36,995.87
2010,04,02,04,37,995.90
2010,04,02,04,38,995.84
2010,04,02,04,39,995.67
2010,04,02,04,40,995.67
2010,04,02,04,41,995.56
2010,04,02,04,42,995.53
2010,04,02,04,43,995.56
2010,04,02,04,44,995.43
2010,04,02,04,45,995.50
2010,04,02,04,46,995.41
2010,04,02,04,47,995.29
2010,04,02,04,48,995.40
2010,04,02,04,49,995.23
2010,04,02,04,50,995.19
2010,04,02,04,51,995.09
2010,04,02,04,52,995.18
2010,04,02,04,53,995.23
2010,04,02,04,54,995.12
2010,04,02,04,55,995.06
2010,04,02,04,56,994.96
2010,04,02,04,57,994.99
2010,04,02,04,58,994.96
2010,04,02,04,59,994.89
2010,04,02,05,00,994.89
2010,04,02,05,01,994.84
2010,04,02,05,02,994.65
2010,04,02,05,03,994.82
2010,04,02,05,04,994.72
2010,04,02,05,05,994.58
2010,04,02,05,06,994.61
2010,04,02,05,07,994.48
2010,04,02,05,08,994.45
2010,04,02,05,09,994.38
2010,04,02,05,10,994.31
2010,04,02,05,11,994.28
2010,04,02,05,12,994.14
2010,04,02,05,13,994.21
2010,04,02,05,14,994.11
2010,04,02,05,15,994.02
2010,04,02,05,16,993.94
2010,04,02,05,17,993.87
2010,04,02,05,18,993.66
2010,04,02,05,19,993.57
2010,04,02,05,20,993.53
2010,04,02,05,21,993.36
2010,04,02,05,22,993.30
2010,04,02,05,23,993.33
2010,04,02,05,24,993.33
2010,04,02,05,25,993.16
2010,04,02,05,26,993.13
2010,04,02,05,27,992.99
2010,04,02,05,28,992.96
2010,04,02,05,29,992.96
2010,04,02,05,30,992.92
2010,04,02,05,31,992.72
2010,04,02,05,32,992.72
2010,04,02,05,33,992.58
2010,04,02,05,34,992.52
2010,04,02,05,35,992.45
2010,04,02,05,36,992.42
2010,04,02,05,37,992.45
2010,04,02,05,38,992.42
2010,04,02,05,39,992.18
2010,04,02,05,40,992.28
2010,04,02,05,41,992.21
2010,04,02,05,42,992.08
2010,04,02,05,43,991.91
2010,04,02,05,44,991.91
2010,04,02,05,45,992.01
2010,04,02,05,46,992.04
2010,04,02,05,47,991.98
2010,04,02,05,48,992.04
2010,04,02,05,49,991.84
2010,04,02,05,50,991.91
2010,04,02,05,51,991.94
2010,04,02,05,52,991.94
2010,04,02,05,53,991.81
2010,04,02,05,54,991.81
2010,04,02,05,55,991.70
2010,04,02,05,56,991.60
2010,04,02,05,57,991.64
2010,04,02,05,58,991.67
2010,04,02,05,59,991.64
2010,04,02,06,00,991.57
2010,04,02,06,01,991.60
2010,04,02,06,02,991.60
2010,04,02,06,03,991.53
2010,04,02,06,04,991.50
2010,04,02,06,05,991.43
2010,04,02,06,06,991.30
2010,04,02,06,07,991.20
2010,04,02,06,08,991.20
2010,04,02,06,09,991.13
2010,04,02,06,10,991.06
2010,04,02,06,11,990.82
2010,04,02,06,12,990.76
2010,04,02,06,13,990.76
2010,04,02,06,14,990.72
2010,04,02,06,15,990.52
2010,04,02,06,16,990.35
2010,04,02,06,17,990.49
2010,04,02,06,18,990.42
2010,04,02,06,19,990.42
2010,04,02,06,20,990.28
2010,04,02,06,21,990.25
2010,04,02,06,22,990.04
2010,04,02,06,23,989.98
2010,04,02,06,24,989.94
2010,04,02,06,25,989.81
2010,04,02,06,26,989.64
2010,04,02,06,27,989.64
2010,04,02,06,28,989.50
2010,04,02,06,29,989.57
2010,04,02,06,30,989.60
2010,04,02,06,31,989.54
2010,04,02,06,32,989.40
2010,04,02,06,33,989.30
2010,04,02,06,34,989.16
2010,04,02,06,35,989.20
2010,04,02,06,36,989.07
2010,04,02,06,37,989.00
2010,04,02,06,38,988.86
2010,04,02,06,39,988.76
2010,04,02,06,40,988.92
2010,04,02,06,41,988.72
2010,04,02,06,42,988.76
2010,04,02,06,43,988.69
2010,04,02,06,44,988.52
2010,04,02,06,45,988.48
2010,04,02,06,46,988.39
2010,04,02,06,47,988.28
2010,04,02,06,48,988.28
2010,04,02,06,49,988.22
2010,04,02,06,50,988.05
2010,04,02,06,51,987.97
2010,04,02,06,52,987.84
2010,04,02,06,53,987.81
2010,04,02,06,54,987.67
2010,04,02,06,55,987.74
2010,04,02,06,56,987.71
2010,04,02,06,57,987.56
2010,04,02,06,58,987.44
2010,04,02,06,59,987.40
2010,04,02,07,00,987.40
2010,04,02,07,01,987.27
2010,04,02,07,02,987.27
2010,04,02,07,03,987.23
2010,04,02,07,04,987.20
2010,04,02,07,05,987.13
2010,04,02,07,06,986.93
2010,04,02,07,07,986.90
2010,04,02,07,08,986.90
2010,04,02,07,09,986.69
2010,04,02,07,10,986.73
2010,04,02,07,11,986.69
2010,04,02,07,12,986.56
2010,04,02,07,13,986.35
2010,04,02,07,14,986.35
2010,04,02,07,15,986.29
2010,04,02,07,16,986.29
2010,04,02,07,17,986.25
2010,04,02,07,18,986.35
2010,04,02,07,19,986.25
2010,04,02,07,20,986.22
2010,04,02,07,21,986.12
2010,04,02,07,22,986.02
2010,04,02,07,23,986.15
2010,04,02,07,24,985.89
2010,04,02,07,25,985.98
2010,04,02,07,26,985.95
2010,04,02,07,27,985.95
2010,04,02,07,28,985.91
2010,04,02,07,29,985.95
2010,04,02,07,30,985.85
2010,04,02,07,31,985.95
2010,04,02,07,32,985.95
2010,04,02,07,33,986.02
2010,04,02,07,34,986.02
2010,04,02,07,35,985.88
2010,04,02,07,36,985.81
2010,04,02,07,37,985.74
2010,04,02,07,38,985.74
2010,04,02,07,39,985.71
2010,04,02,07,40,985.51
2010,04,02,07,41,985.47
2010,04,02,07,42,985.47
2010,04,02,07,43,985.57
2010,04,02,07,44,985.47
2010,04,02,07,45,985.44
2010,04,02,07,46,985.24
2010,04,02,07,47,985.20
2010,04,02,07,48,985.24
2010,04,02,07,49,985.20
2010,04,02,07,50,985.10
2010,04,02,07,51,985.23
2010,04,02,07,52,985.07
2010,04,02,07,53,985.03
2010,04,02,07,54,984.93
2010,04,02,07,55,985.00
2010,04,02,07,56,985.03
2010,04,02,07,57,984.86
2010,04,02,07,58,984.86
2010,04,02,07,59,984.69
2010,04,02,08,00,984.69
2010,04,02,08,01,984.69
2010,04,02,08,02,984.62
2010,04,02,08,03,984.39
2010,04,02,08,04,984.29
2010,04,02,08,05,984.36
2010,04,02,08,06,984.39
2010,04,02,08,07,984.29
2010,04,02,08,08,984.28
2010,04,02,08,09,984.12
2010,04,02,08,10,984.15
2010,04,02,08,11,984.32
2010,04,02,08,12,984.25
2010,04,02,08,13,984.19
2010,04,02,08,14,984.22
2010,04,02,08,15,984.12
2010,04,02,08,16,984.08
2010,04,02,08,17,984.02
2010,04,02,08,18,984.05
2010,04,02,08,19,984.08
2010,04,02,08,20,984.05
2010,04,02,08,21,983.92
2010,04,02,08,22,983.88
2010,04,02,08,23,983.75
2010,04,02,08,24,983.78
2010,04,02,08,25,983.74
2010,04,02,08,26,983.64
2010,04,02,08,27,983.49
2010,04,02,08,28,983.48
2010,04,02,08,29,983.77
2010,04,02,08,30,983.64
2010,04,02,08,31,983.71
2010,04,02,08,32,983.59
2010,04,02,08,33,983.61
2010,04,02,08,34,983.61
2010,04,02,08,35,983.71
2010,04,02,08,36,983.61
2010,04,02,08,37,983.44
2010,04,02,08,38,983.48
2010,04,02,08,39,983.41
2010,04,02,08,40,983.37
2010,04,02,08,41,983.31
2010,04,02,08,42,983.24
2010,04,02,08,43,983.17
2010,04,02,08,44,983.10
2010,04,02,08,45,983.10
2010,04,02,08,46,983.04
2010,04,02,08,47,983.00
2010,04,02,08,48,983.00
2010,04,02,08,49,983.00
2010,04,02,08,50,983.00
2010,04,02,08,51,983.04
2010,04,02,08,52,983.07
2010,04,02,08,53,983.04
2010,04,02,08,54,983.07
2010,04,02,08,55,982.97
2010,04,02,08,56,982.90
2010,04,02,08,57,982.79
2010,04,02,08,58,982.66
2010,04,02,08,59,982.63
2010,04,02,09,00,982.70
2010,04,02,09,01,982.70
2010,04,02,09,02,982.62
2010,04,02,09,03,982.53
2010,04,02,09,04,982.63
2010,04,02,09,05,982.59
2010,04,02,09,06,982.39
2010,04,02,09,07,982.46
2010,04,02,09,08,982.29
2010,04,02,09,09,982.16
2010,04,02,09,10,982.15
2010,04,02,09,11,982.32
2010,04,02,09,12,982.46
2010,04,02,09,13,982.28
2010,04,02,09,14,982.02
2010,04,02,09,15,982.09
2010,04,02,09,16,982.22
2010,04,02,09,17,982.15
2010,04,02,09,18,982.12
2010,04,02,09,19,982.12
2010,04,02,09,20,982.03
2010,04,02,09,21,982.05
2010,04,02,09,22,981.93
2010,04,02,09,23,981.88
2010,04,02,09,24,981.88
2010,04,02,09,25,981.85
2010,04,02,09,26,981.78
2010,04,02,09,27,981.71
2010,04,02,09,28,981.68
2010,04,02,09,29,981.75
2010,04,02,09,30,981.68
2010,04,02,09,31,981.75
2010,04,02,09,32,981.65
2010,04,02,09,33,981.68
2010,04,02,09,34,981.82
2010,04,02,09,35,981.74
2010,04,02,09,36,981.61
2010,04,02,09,37,981.74
2010,04,02,09,38,981.71
2010,04,02,09,39,981.70
2010,04,02,09,40,981.52
2010,04,02,09,41,981.71
2010,04,02,09,42,981.59
2010,04,02,09,43,981.48
2010,04,02,09,44,981.67
2010,04,02,09,45,981.85
2010,04,02,09,46,981.61
2010,04,02,09,47,981.65
2010,04,02,09,48,981.58
2010,04,02,09,49,981.51
2010,04,02,09,50,981.58
2010,04,02,09,51,981.61
2010,04,02,09,52,981.48
2010,04,02,09,53,981.48
2010,04,02,09,54,981.44
2010,04,02,09,55,981.41
2010,04,02,09,56,981.44
2010,04,02,09,57,981.21
2010,04,02,09,58,981.38
2010,04,02,09,59,981.51
2010,04,02,10,00,981.41
2010,04,02,10,01,981.54
2010,04,02,10,02,981.51
2010,04,02,10,03,981.44
2010,04,02,10,04,981.48
2010,04,02,10,05,981.48
2010,04,02,10,06,981.38
2010,04,02,10,07,981.51
2010,04,02,10,08,981.55
2010,04,02,10,09,981.55
2010,04,02,10,10,981.58
2010,04,02,10,11,981.44
2010,04,02,10,12,981.41
2010,04,02,10,13,981.38
2010,04,02,10,14,981.27
2010,04,02,10,15,981.31
2010,04,02,10,16,981.24
2010,04,02,10,17,981.17
2010,04,02,10,18,981.30
2010,04,02,10,19,981.10
2010,04,02,10,20,981.14
2010,04,02,10,21,981.21
2010,04,02,10,22,981.34
2010,04,02,10,23,981.24
2010,04,02,10,24,981.14
2010,04,02,10,25,981.17
2010,04,02,10,26,981.14
2010,04,02,10,27,981.24
2010,04,02,10,28,981.38
2010,04,02,10,29,981.31
2010,04,02,10,30,981.27
2010,04,02,10,31,981.30
2010,04,02,10,32,981.07
2010,04,02,10,33,981.14
2010,04,02,10,34,981.07
2010,04,02,10,35,981.14
2010,04,02,10,36,981.21
2010,04,02,10,37,981.24
2010,04,02,10,38,981.24
2010,04,02,10,39,981.27
2010,04,02,10,40,981.21
2010,04,02,10,41,981.07
2010,04,02,10,42,981.06
2010,04,02,10,43,980.90
2010,04,02,10,44,980.70
2010,04,02,10,45,981.07
2010,04,02,10,46,980.60
2010,04,02,10,47,980.90
2010,04,02,10,48,980.99
2010,04,02,10,49,980.97
2010,04,02,10,50,981.00
2010,04,02,10,51,981.04
2010,04,02,10,52,981.10
2010,04,02,10,53,981.14
2010,04,02,10,54,981.00
2010,04,02,10,55,981.04
2010,04,02,10,56,980.73
2010,04,02,10,57,980.83
2010,04,02,10,58,980.87
2010,04,02,10,59,980.70
2010,04,02,11,00,980.94
2010,04,02,11,01,980.94
2010,04,02,11,02,980.63
2010,04,02,11,03,980.83
2010,04,02,11,04,980.80
2010,04,02,11,05,980.73
2010,04,02,11,06,980.60
2010,04,02,11,07,980.63
2010,04,02,11,08,980.63
2010,04,02,11,09,980.60
2010,04,02,11,10,980.50
2010,04,02,11,11,980.39
2010,04,02,11,12,980.36
2010,04,02,11,13,980.46
2010,04,02,11,14,980.56
2010,04,02,11,15,980.53
2010,04,02,11,16,980.88
2010,04,02,11,17,980.39
2010,04,02,11,18,980.50
2010,04,02,11,19,980.43
2010,04,02,11,20,980.60
2010,04,02,11,21,980.53
2010,04,02,11,22,980.26
2010,04,02,11,23,980.33
2010,04,02,11,24,980.02
2010,04,02,11,25,980.17
2010,04,02,11,26,980.29
2010,04,02,11,27,979.97
2010,04,02,11,28,980.22
2010,04,02,11,29,980.02
2010,04,02,11,30,979.89
2010,04,02,11,31,980.02
2010,04,02,11,32,980.02
2010,04,02,11,33,979.92
2010,04,02,11,34,980.08
2010,04,02,11,35,979.95
2010,04,02,11,36,980.16
2010,04,02,11,37,980.00
2010,04,02,11,38,980.12
2010,04,02,11,39,980.22
2010,04,02,11,40,980.10
2010,04,02,11,41,979.99
2010,04,02,11,42,979.99
2010,04,02,11,43,980.06
2010,04,02,11,44,979.92
2010,04,02,11,45,979.89
2010,04,02,11,46,979.95
2010,04,02,11,47,979.76
2010,04,02,11,48,979.85
2010,04,02,11,49,979.82
2010,04,02,11,50,979.82
2010,04,02,11,51,979.68
2010,04,02,11,52,979.82
2010,04,02,11,53,979.55
2010,04,02,11,54,979.72
2010,04,02,11,55,979.56
2010,04,02,11,56,979.72
2010,04,02,11,57,979.48
2010,04,02,11,58,979.51
2010,04,02,11,59,979.45
2010,04,02,12,00,979.51
2010,04,02,12,01,979.29
2010,04,02,12,02,979.17
2010,04,02,12,03,979.24
2010,04,02,12,04,979.11
2010,04,02,12,05,979.14
2010,04,02,12,06,979.27
2010,04,02,12,07,979.34
2010,04,02,12,08,979.48
2010,04,02,12,09,979.27
2010,04,02,12,10,979.14
2010,04,02,12,11,979.17
2010,04,02,12,12,979.07
2010,04,02,12,13,979.07
2010,04,02,12,14,979.28
2010,04,02,12,15,979.08
2010,04,02,12,16,979.17
2010,04,02,12,17,978.94
2010,04,02,12,18,978.94
2010,04,02,12,19,979.01
2010,04,02,12,20,978.70
2010,04,02,12,21,978.84
2010,04,02,12,22,978.84
2010,04,02,12,23,978.90
2010,04,02,12,24,978.90
2010,04,02,12,25,978.90
2010,04,02,12,26,978.97
2010,04,02,12,27,978.94
2010,04,02,12,28,978.77
2010,04,02,12,29,978.73
2010,04,02,12,30,978.87
2010,04,02,12,31,978.84
2010,04,02,12,32,978.77
2010,04,02,12,33,978.50
2010,04,02,12,34,978.84
2010,04,02,12,35,978.73
2010,04,02,12,36,978.63
2010,04,02,12,37,978.63
2010,04,02,12,38,978.70
2010,04,02,12,39,978.60
2010,04,02,12,40,978.50
2010,04,02,12,41,978.36
2010,04,02,12,42,978.36
2010,04,02,12,43,978.36
2010,04,02,12,44,978.49
2010,04,02,12,45,978.57
2010,04,02,12,46,978.12
2010,04,02,12,47,978.36
2010,04,02,12,48,978.35
2010,04,02,12,49,978.19
2010,04,02,12,50,978.19
2010,04,02,12,51,978.36
2010,04,02,12,52,978.33
2010,04,02,12,53,978.26
2010,04,02,12,54,978.33
2010,04,02,12,55,978.20
2010,04,02,12,56,978.33
2010,04,02,12,57,978.26
2010,04,02,12,58,978.16
2010,04,02,12,59,978.26
2010,04,02,13,00,978.19
2010,04,02,13,01,978.07
2010,04,02,13,02,978.19
2010,04,02,13,03,978.19
2010,04,02,13,04,978.26
2010,04,02,13,05,977.99
2010,04,02,13,06,977.96
2010,04,02,13,07,977.92
2010,04,02,13,08,977.96
2010,04,02,13,09,978.06
2010,04,02,13,10,978.06
2010,04,02,13,11,978.02
2010,04,02,13,12,977.96
2010,04,02,13,13,977.82
2010,04,02,13,14,977.85
2010,04,02,13,15,977.95
2010,04,02,13,16,977.82
2010,04,02,13,17,977.82
2010,04,02,13,18,977.89
2010,04,02,13,19,977.82
2010,04,02,13,20,977.68
2010,04,02,13,21,977.66
2010,04,02,13,22,977.75
2010,04,02,13,23,977.55
2010,04,02,13,24,977.62
2010,04,02,13,25,977.62
2010,04,02,13,26,977.45
2010,04,02,13,27,977.48
2010,04,02,13,28,977.41
2010,04,02,13,29,977.31
2010,04,02,13,30,977.48
2010,04,02,13,31,977.31
2010,04,02,13,32,977.35
2010,04,02,13,33,977.31
2010,04,02,13,34,977.15
2010,04,02,13,35,977.24
2010,04,02,13,36,977.11
2010,04,02,13,37,977.08
2010,04,02,13,38,977.08
2010,04,02,13,39,976.78
2010,04,02,13,40,977.04
2010,04,02,13,41,977.08
2010,04,02,13,42,977.01
2010,04,02,13,43,977.01
2010,04,02,13,44,977.04
2010,04,02,13,45,976.88
2010,04,02,13,46,976.87
2010,04,02,13,47,976.87
2010,04,02,13,48,976.90
2010,04,02,13,49,976.77
2010,04,02,13,50,976.86
2010,04,02,13,51,976.80
2010,04,02,13,52,976.94
2010,04,02,13,53,976.77
2010,04,02,13,54,976.91
2010,04,02,13,55,976.97
2010,04,02,13,56,976.77
2010,04,02,13,57,976.84
2010,04,02,13,58,976.77
2010,04,02,13,59,976.70
2010,04,02,14,00,976.83
2010,04,02,14,01,976.87
2010,04,02,14,02,976.77
2010,04,02,14,03,976.70
2010,04,02,14,04,976.60
2010,04,02,14,05,976.77
2010,04,02,14,06,976.64
2010,04,02,14,07,976.60
2010,04,02,14,08,976.63
2010,04,02,14,09,976.53
2010,04,02,14,10,976.57
2010,04,02,14,11,976.50
2010,04,02,14,12,976.47
2010,04,02,14,13,976.53
2010,04,02,14,14,976.47
2010,04,02,14,15,976.50
2010,04,02,14,16,976.50
2010,04,02,14,17,976.50
2010,04,02,14,18,976.47
2010,04,02,14,19,976.50
2010,04,02,14,20,976.53
2010,04,02,14,21,976.53
2010,04,02,14,22,976.48
2010,04,02,14,23,976.70
2010,04,02,14,24,976.70
2010,04,02,14,25,976.80
2010,04,02,14,26,976.77
2010,04,02,14,27,976.74
2010,04,02,14,28,976.84
2010,04,02,14,29,976.77
2010,04,02,14,30,976.77
2010,04,02,14,31,976.87
2010,04,02,14,32,976.84
2010,04,02,14,33,976.87
2010,04,02,14,34,976.84
2010,04,02,14,35,977.01
2010,04,02,14,36,976.94
2010,04,02,14,37,976.87
2010,04,02,14,38,976.94
2010,04,02,14,39,976.91
2010,04,02,14,40,977.04
2010,04,02,14,41,977.04
2010,04,02,14,42,977.14
2010,04,02,14,43,977.24
2010,04,02,14,44,977.15
2010,04,02,14,45,977.18
2010,04,02,14,46,977.30
2010,04,02,14,47,977.35
2010,04,02,14,48,977.18
2010,04,02,14,49,977.35
2010,04,02,14,50,977.35
2010,04,02,14,51,977.48
2010,04,02,14,52,977.45
2010,04,02,14,53,977.35
2010,04,02,14,54,977.45
2010,04,02,14,55,977.41
2010,04,02,14,56,977.48
2010,04,02,14,57,977.48
2010,04,02,14,58,977.52
2010,04,02,14,59,977.45
2010,04,02,15,00,977.48
2010,04,02,15,01,977.52
2010,04,02,15,02,977.52
2010,04,02,15,03,977.55
2010,04,02,15,04,977.48
2010,04,02,15,05,977.55
2010,04,02,15,06,977.58
2010,04,02,15,07,977.55
2010,04,02,15,08,977.58
2010,04,02,15,09,977.62
2010,04,02,15,10,977.62
2010,04,02,15,11,977.55
2010,04,02,15,12,977.52
2010,04,02,15,13,977.52
2010,04,02,15,14,977.45
2010,04,02,15,15,977.45
2010,04,02,15,16,977.45
2010,04,02,15,17,977.52
2010,04,02,15,18,977.45
2010,04,02,15,19,977.48
2010,04,02,15,20,977.48
2010,04,02,15,21,977.41
2010,04,02,15,22,977.38
2010,04,02,15,23,977.38
2010,04,02,15,24,977.31
2010,04,02,15,25,977.28
2010,04,02,15,26,977.28
2010,04,02,15,27,977.28
2010,04,02,15,28,977.35
2010,04,02,15,29,977.31
2010,04,02,15,30,977.28
2010,04,02,15,31,977.28
2010,04,02,15,32,977.24
2010,04,02,15,33,977.28
2010,04,02,15,34,977.31
2010,04,02,15,35,977.21
2010,04,02,15,36,977.31
2010,04,02,15,37,977.28
2010,04,02,15,38,977.28
2010,04,02,15,39,977.28
2010,04,02,15,40,977.28
2010,04,02,15,41,977.35
2010,04,02,15,42,977.35
2010,04,02,15,43,977.41
2010,04,02,15,44,977.45
2010,04,02,15,45,977.48
2010,04,02,15,46,977.55
2010,04,02,15,47,977.58
2010,04,02,15,48,977.58
2010,04,02,15,49,977.62
2010,04,02,15,50,977.62
2010,04,02,15,51,977.68
2010,04,02,15,52,977.72
2010,04,02,15,53,977.79
2010,04,02,15,54,977.85
2010,04,02,15,55,977.89
2010,04,02,15,56,977.89
2010,04,02,15,57,977.82
2010,04,02,15,58,977.92
2010,04,02,15,59,977.99
2010,04,02,16,00,978.02
2010,04,02,16,01,978.06
2010,04,02,16,02,978.06
2010,04,02,16,03,978.06
2010,04,02,16,04,978.12
2010,04,02,16,05,978.12
2010,04,02,16,06,978.12
2010,04,02,16,07,978.16
2010,04,02,16,08,978.16
2010,04,02,16,09,978.26
2010,04,02,16,10,978.26
2010,04,02,16,11,978.33
2010,04,02,16,12,978.33
2010,04,02,16,13,978.40
2010,04,02,16,14,978.40
2010,04,02,16,15,978.50
2010,04,02,16,16,978.53
2010,04,02,16,17,978.57
2010,04,02,16,18,978.60
2010,04,02,16,19,978.67
2010,04,02,16,20,978.73
2010,04,02,16,21,978.70
2010,04,02,16,22,978.80
2010,04,02,16,23,978.84
2010,04,02,16,24,978.93
2010,04,02,16,25,978.97
2010,04,02,16,26,978.97
2010,04,02,16,27,979.01
2010,04,02,16,28,979.07
2010,04,02,16,29,979.17
2010,04,02,16,30,979.17
2010,04,02,16,31,979.24
2010,04,02,16,32,979.31